Weather History for Tulsa Jones, OK

Change the Weather History Date:

Sunday, February 2, 2014

  Actual Average (KTUL) Record (KTUL)
Temperature  
Mean Temperature 24 °F 39 °F  
Max Temperature 30 °F 50 °F 77 °F (1995)
Min Temperature 18 °F 28 °F -1 °F (2011)
Degree Days  
Heating Degree Days 40 26  
Month to date heating degree days 52  
Since 1 July heating degree days 2325  
Moisture  
Dew Point 18 °F    
Average Humidity 74    
Maximum Humidity 88    
Minimum Humidity 58    
Precipitation  
Precipitation 0.05 in 0.06 in 0.69 in (1943)
Month to date precipitation 0.11  
Year to date precipitation 1.77  
Sea Level Pressure  
Sea Level Pressure 30.31 in    
Wind  
Wind Speed 10 mph (North)    
Max Wind Speed 15 mph    
Max Gust Speed 24 mph    
Visibility 6 miles    
Events Fog , Snow    
T = Trace of Precipitation, MM = Missing Value Source: NWS Daily Summary

Daily Weather History Graph

Daily Weather History Graph

Search for Another Location

Airport:

Trip Planner

Search our weather history database for the weather conditions in past years. The results will help you decide how hot, cold, wet, or windy it might be!

Date:

Astronomy

Feb. 02, 2014 Rise Set
Actual Time 7:23 AM CST 5:51 PM CST
Civil Twilight 6:56 AM CST 6:18 PM CST
Nautical Twilight 6:26 AM CST 6:49 PM CST
Astronomical Twilight 5:56 AM CST 7:19 PM CST
Moon 8:58 AM CST (2/2) 9:28 PM CST (2/2)
Length of Visible Light 11h 22m
Length of Day
10h 28m
Waxing Crescent, 11% of the Moon is Illuminated
Feb 2
Waxing Crescent
Feb 6
First Quarter
Feb 14
Full
Feb 22
Last Quarter
Mar 1
New

Hourly Weather History & Observations

Time (CST) Temp. Windchill Dew Point Humidity Pressure Visibility Wind Dir Wind Speed Gust Speed Precip Events Conditions
12:53 AM 30.0 °F 20.5 °F 23.0 °F 75% 30.23 in 10.0 mi North 11.5 mph - N/A   Overcast
1:53 AM 30.0 °F 19.5 °F 23.0 °F 75% 30.24 in 8.0 mi North 13.8 mph 19.6 mph N/A   Mostly Cloudy
2:07 AM 30.2 °F 21.3 °F 23.0 °F 75% 30.21 in 8.0 mi North 10.4 mph 23.0 mph N/A   Overcast
2:53 AM 30.0 °F 20.5 °F 23.0 °F 75% 30.22 in 7.0 mi NNE 11.5 mph 18.4 mph N/A   Overcast
3:53 AM 28.9 °F 18.6 °F 23.0 °F 78% 30.22 in 8.0 mi North 12.7 mph 18.4 mph N/A   Overcast
4:53 AM 28.9 °F 18.2 °F 21.0 °F 72% 30.28 in 10.0 mi North 13.8 mph 20.7 mph N/A   Overcast
5:51 AM 26.6 °F 15.7 °F 19.4 °F 74% 30.25 in 10.0 mi North 12.7 mph 20.7 mph N/A   Overcast
5:53 AM 27.0 °F 18.0 °F 19.0 °F 72% 30.29 in 10.0 mi North 9.2 mph 19.6 mph N/A   Overcast
6:53 AM 26.1 °F 14.0 °F 18.0 °F 71% 30.27 in 10.0 mi NNE 15.0 mph 23.0 mph N/A   Overcast
7:53 AM 25.0 °F 14.2 °F 17.1 °F 72% 30.26 in 10.0 mi North 11.5 mph 24.2 mph N/A   Overcast
8:53 AM 25.0 °F 16.3 °F 17.1 °F 72% 30.33 in 7.0 mi North 8.1 mph - N/A   Overcast
9:05 AM 24.8 °F 13.4 °F 17.6 °F 74% 30.32 in 1.8 mi NNE 12.7 mph 17.3 mph 0.00 in Snow Light Snow
9:11 AM 24.8 °F 14.6 °F 17.6 °F 74% 30.32 in 0.8 mi NNE 10.4 mph - 0.00 in Snow Light Snow
9:19 AM 24.8 °F 16.9 °F 19.4 °F 80% 30.34 in 0.5 mi North 6.9 mph - 0.00 in Snow Snow
9:37 AM 23.0 °F 13.1 °F 19.4 °F 86% 30.36 in 0.2 mi North 9.2 mph - 0.01 in Fog , Snow Heavy Snow
9:53 AM 23.0 °F 13.9 °F 19.9 °F 88% 30.36 in 0.2 mi North 8.1 mph 17.3 mph 0.02 in Fog , Snow Snow
10:29 AM 23.0 °F 11.7 °F 19.4 °F 86% 30.31 in 0.5 mi North 11.5 mph - 0.02 in Fog , Snow Snow
10:45 AM 24.8 °F 16.9 °F 19.4 °F 80% 30.32 in 0.8 mi North 6.9 mph - 0.02 in Snow Light Snow
10:49 AM 24.8 °F 16.1 °F 19.4 °F 80% 30.32 in 1.0 mi North 8.1 mph - 0.03 in Snow Light Snow
10:53 AM 24.1 °F 14.4 °F 19.9 °F 84% 30.35 in 1.2 mi North 9.2 mph - 0.03 in Snow Light Snow
11:15 AM 24.8 °F 16.1 °F 17.6 °F 74% 30.32 in 2.0 mi North 8.1 mph 20.7 mph 0.00 in Snow Light Snow
11:22 AM 24.8 °F 14.6 °F 17.6 °F 74% 30.32 in 2.5 mi North 10.4 mph - 0.00 in Snow Light Snow
11:31 AM 24.8 °F 16.1 °F 17.6 °F 74% 30.33 in 3.0 mi North 8.1 mph - 0.00 in Snow Light Snow
11:41 AM 24.8 °F 16.9 °F 19.4 °F 80% 30.34 in 2.0 mi North 6.9 mph - 0.00 in Snow Light Snow
11:44 AM 24.8 °F 16.9 °F 19.4 °F 80% 30.34 in 1.8 mi North 6.9 mph - 0.00 in Snow Light Snow
11:53 AM 24.1 °F 15.2 °F 18.0 °F 77% 30.35 in 1.0 mi North 8.1 mph 17.3 mph 0.00 in Snow Light Snow
12:36 PM 24.8 °F 14.0 °F 19.4 °F 80% 30.30 in 2.5 mi North 11.5 mph 18.4 mph 0.00 in Snow Light Snow
12:38 PM 24.8 °F 14.0 °F 19.4 °F 80% 30.29 in 3.0 mi North 11.5 mph 18.4 mph 0.00 in Snow Light Snow
12:53 PM 25.0 °F 14.2 °F 19.0 °F 78% 30.32 in 5.0 mi North 11.5 mph 18.4 mph 0.00 in   Overcast
1:53 PM 27.0 °F 16.7 °F 18.0 °F 69% 30.31 in 10.0 mi NNE 11.5 mph 18.4 mph 0.00 in   Overcast
2:53 PM 28.0 °F 18.1 °F 18.0 °F 66% 30.30 in 10.0 mi North 11.5 mph 16.1 mph N/A   Mostly Cloudy
3:53 PM 28.0 °F 18.6 °F 16.0 °F 61% 30.30 in 10.0 mi NNE 10.4 mph - N/A   Clear
4:53 PM 28.0 °F 20.0 °F 16.0 °F 61% 30.31 in 10.0 mi NNE 8.1 mph - N/A   Clear
5:53 PM 27.0 °F 19.5 °F 14.0 °F 58% 30.34 in 10.0 mi NNE 6.9 mph - N/A   Clear
6:53 PM 26.1 °F 20.5 °F 15.1 °F 63% 30.33 in 10.0 mi North 4.6 mph - N/A   Clear
7:53 PM 25.0 °F 19.3 °F 14.0 °F 63% 30.34 in 10.0 mi North 4.6 mph - N/A   Clear
8:53 PM 24.1 °F 17.0 °F 14.0 °F 65% 30.34 in 10.0 mi NNE 5.8 mph - N/A   Clear
9:53 PM 21.9 °F 17.2 °F 12.9 °F 68% 30.36 in 10.0 mi North 3.5 mph - N/A   Clear
10:53 PM 19.9 °F 14.9 °F 12.9 °F 74% 30.37 in 10.0 mi NNE 3.5 mph - N/A   Clear
11:53 PM 18.0 °F 12.7 °F 12.9 °F 81% 30.36 in 10.0 mi NNE 3.5 mph - N/A   Clear